Regional Weather Roundup
Issued by NWS Sioux Falls, SD

Home | Current Version | Previous Version | Text Only | Print | Product List | Glossary On
Versions: 1 2 3 4 5 6 7 8 9 10 11 12 13 14 15 16 17 18 19 20 21 22 23 24 25 26 27 28 29 30 31 32 33 34 35 36 37 38 39 40 41 42 43 44 45 46 47 48 49 50
932
ASUS43 KFSD 101710
RWRFSD

WEATHER ROUNDUP FOR SE SOUTH DAKOTA/SW MINNESOTA/NW IOWA
NATIONAL WEATHER SERVICE SIOUX FALLS SD
1100 AM CST WED FEB 10 2016

NOTE: "FAIR" INDICATES FEW OR NO CLOUDS BELOW 12,000 FEET WITH NO
SIGNIFICANT WEATHER AND OR OBSTRUCTIONS TO VISIBILITY.


SDZ038>040-050-052>070-101800-
SOUTHEAST SOUTH DAKOTA

CITY           SKY/WX    TMP DP  RH WIND       PRES   REMARKS
BROOKINGS      FLURRIES  13   8  81 E13       29.96F WCI  -2
CHAMBERLAIN    SUNNY     33  26  75 CALM      29.87R
HURON          CLOUDY    23  17  78 SE15      29.94R WCI  10
MADISON        PTSUNNY   14  14 100 E14       29.95S WCI  -1
MITCHELL       MOSUNNY   27  20  75 SE15      29.93S WCI  15
SIOUX FALLS    CLOUDY    18  13  80 E14       29.98R WCI   4
WINNER         FAIR      46  30  53 W9        29.86S
YANKTON        SUNNY     25  18  74 E14       29.92F WCI  13
$$

MNZ071-072-080-081-089-090-097-098-101800-
SOUTHWEST MINNESOTA

CITY           SKY/WX    TMP DP  RH WIND       PRES   REMARKS
FAIRMONT       CLOUDY     9   1  72 E6        30.06F WCI  -1
JACKSON        LGT SNOW  10   5  79 E9        30.04F WCI  -2
LUVERNE        LGT SNOW  18  12  79 E14       30.01R WCI   4
MARSHALL       FLURRIES  10   4  76 SE12      30.06F WCI  -5
MONTEVIDEO     LGT SNOW  10   5  79 S8        30.10S WCI  -1
PIPESTONE      LGT SNOW  14   5  67 SE14      29.97S WCI  -1
REDWOOD FALLS  LGT SNOW   8   2  76 SE8       30.09S WCI  -4
TRACY          LGT SNOW  11   6  81 E8        30.05F WCI  -1
WINDOM         LGT SNOW   9   3  78 E6        30.04S WCI  -1
WORTHINGTON    CLOUDY     9   3  78 E12       30.03R WCI  -6
$$

IAZ001>003-012>014-020>022-031-032-NEZ013-014-SDZ071-101800-
NORTHWEST IOWA

CITY           SKY/WX    TMP DP  RH WIND       PRES   REMARKS
CHEROKEE       FLURRIES  17  13  86 E10       30.01S WCI   4
DENISON        CLOUDY    23  19  86 SE13      29.97S WCI  11
ESTHERVILLE    LGT SNOW   9   5  84 E8        30.05S FOG     WCI  -3
LE MARS        CLOUDY    23  21  93 E13G20    29.98S WCI  11
ORANGE CITY    LGT SNOW  18  16  93 E10G16    29.97S WCI   6
SHELDON        LGT SNOW  14  12  92 E20       29.98S WCI  -3
SIOUX CITY     MOSUNNY   28  19  69 SE15      29.96F WCI  16
SPENCER        LGT SNOW  13   7  77 E14       30.03S WCI  -2
STORM LAKE     CLOUDY    14  12  92 E16       29.99F WCI  -2
$$

ABBREVIATIONS USED IN REMARKS
   TC - TEMPERATURE IN CELSIUS
  WCI - WIND CHILL INDEX
   HX - HEAT INDEX
  VSB - VISIBILITY





USA.gov is the U.S. government's official web portal to all federal, state and local government web resources and services.